Hot Springs, AR

2:49 AM CDT on May 28, 2018 (GMT -0500)
Hot Springs Memorial

Weather History for KHOT - June, 2013

Change the Weather History Date:

Tuesday, June 18, 2013

  Actual Average Record
Temperature  
Mean Temperature 76 °F -  
Max Temperature 84 °F 89 °F 102 °F (1985)
Min Temperature 69 °F 66 °F 54 °F (1978)
Cooling Degree Days 12    
Growing Degree Days 26 (Base 50)    
Moisture  
Dew Point 67 °F    
Average Humidity 75    
Maximum Humidity 97    
Minimum Humidity 49    
Precipitation  
Precipitation 0.00 in - - ()
Sea Level Pressure  
Sea Level Pressure 29.95 in    
Wind  
Wind Speed 3 mph (East)    
Max Wind Speed 12 mph    
Max Gust Speed -    
Visibility 10 miles    
Events      
Averages and records for this station are not official NWS values.
T = Trace of Precipitation, MM = Missing Value Source: NWS Daily Summary

Daily Weather History Graph

Daily Weather History Graph

Search for Another Location

Airport or City:

Astronomy

Jun. 18, 2013 Rise Set
Actual Time 5:59 AM CDT 8:27 PM CDT
Civil Twilight 5:30 AM CDT 8:57 PM CDT
Nautical Twilight 4:53 AM CDT 9:33 PM CDT
Astronomical Twilight 4:13 AM CDT 10:13 PM CDT
Moon 3:22 PM CDT (6/18) 1:57 AM CDT (6/18)
Length of Visible Light 15h 26m
Length of Day
14h 27m
Waxing Gibbous, 71% of the Moon is Illuminated
Jun 18
Waxing Gibbous
Jun 23
Full
Jun 29
Last Quarter
Jul 8
New
Jul 15
First Quarter

Hourly Weather History & Observations

Time (CDT) Temp. Heat Index Dew Point Humidity Pressure Visibility Wind Dir Wind Speed Gust Speed Precip Events Conditions
12:53 AM 72.0 °F - 71.1 °F 97% 29.93 in 10.0 mi NW 3.5 mph - N/A   Clear
1:53 AM 72.0 °F - 69.1 °F 91% 29.92 in 10.0 mi Calm Calm - N/A   Mostly Cloudy
2:53 AM 71.1 °F - 68.0 °F 90% 29.90 in 10.0 mi Calm Calm - N/A   Clear
3:53 AM 69.1 °F - 66.9 °F 93% 29.87 in 10.0 mi West 3.5 mph - N/A   Clear
4:53 AM 69.1 °F - 66.9 °F 93% 29.88 in 10.0 mi Calm Calm - N/A   Clear
5:53 AM 69.1 °F - 66.9 °F 93% 29.91 in 10.0 mi Calm Calm - N/A   Partly Cloudy
6:28 AM 69.8 °F - 66.2 °F 88% 29.94 in 10.0 mi Calm Calm - N/A   Mostly Cloudy
6:53 AM 71.1 °F - 66.9 °F 87% 29.94 in 10.0 mi Calm Calm - N/A   Overcast
7:23 AM 71.6 °F - 68.0 °F 88% 29.98 in 10.0 mi SSE 3.5 mph - N/A   Scattered Clouds
7:53 AM 73.9 °F - 68.0 °F 82% 29.96 in 10.0 mi Calm Calm - N/A   Clear
8:53 AM 75.9 °F - 68.0 °F 76% 29.97 in 10.0 mi ENE 5.8 mph - N/A   Mostly Cloudy
9:53 AM 75.0 °F - 68.0 °F 79% 29.98 in 10.0 mi ENE 6.9 mph - N/A   Overcast
10:53 AM 75.0 °F - 66.9 °F 76% 29.99 in 10.0 mi ENE 8.1 mph - N/A   Overcast
11:53 AM 78.1 °F - 66.9 °F 68% 30.00 in 10.0 mi East 5.8 mph - N/A   Mostly Cloudy
12:29 PM 80.6 °F 82.7 °F 66.2 °F 61% 30.01 in 10.0 mi East 5.8 mph - N/A   Scattered Clouds
12:53 PM 79.0 °F - 68.0 °F 69% 30.00 in 10.0 mi SE 6.9 mph - N/A   Scattered Clouds
1:53 PM 82.9 °F 85.0 °F 66.0 °F 56% 29.97 in 10.0 mi NE 11.5 mph - N/A   Scattered Clouds
2:53 PM 84.0 °F 85.8 °F 64.9 °F 53% 29.96 in 10.0 mi East 5.8 mph - N/A   Partly Cloudy
3:53 PM 84.0 °F 84.9 °F 63.0 °F 49% 29.95 in 10.0 mi East 5.8 mph - N/A   Clear
4:53 PM 84.0 °F 84.9 °F 63.0 °F 49% 29.95 in 10.0 mi East 10.4 mph - N/A   Clear
5:53 PM 82.9 °F 84.0 °F 63.0 °F 51% 29.94 in 10.0 mi East 6.9 mph - N/A   Clear
6:53 PM 82.0 °F 83.8 °F 64.9 °F 56% 29.94 in 10.0 mi ESE 6.9 mph - N/A   Clear
7:53 PM 80.1 °F 82.3 °F 66.9 °F 64% 29.95 in 10.0 mi ESE 4.6 mph - N/A   Clear
8:53 PM 75.9 °F - 66.9 °F 74% 29.97 in 10.0 mi East 3.5 mph - N/A   Clear
9:53 PM 73.9 °F - 66.9 °F 79% 29.99 in 10.0 mi Calm Calm - N/A   Clear
10:53 PM 72.0 °F - 66.0 °F 81% 29.99 in 10.0 mi Calm Calm - N/A   Clear
11:53 PM 69.1 °F - 66.0 °F 90% 29.99 in 10.0 mi North 3.5 mph - N/A   Clear